Beatrice, NE

7:02 AM CDT on May 24, 2017 (GMT -0500)
Beatrice Municipal

Weather History for KBIE - December, 2000

Change the Weather History Date:

Sunday, December 3, 2000

  Actual Average Record
Temperature  
Mean Temperature 30 °F -  
Max Temperature 41 °F 44 °F 66 °F (1998)
Min Temperature 19 °F 21 °F 8 °F (1952)
Degree Days  
Heating Degree Days 35    
Moisture  
Dew Point 19 °F    
Average Humidity 65    
Maximum Humidity 93    
Minimum Humidity 39    
Precipitation  
Precipitation 0.00 in - - ()
Sea Level Pressure  
Sea Level Pressure 30.36 in    
Wind  
Wind Speed 13 mph (South)    
Max Wind Speed 26 mph    
Max Gust Speed 34 mph    
Visibility 10 miles    
Events      
Averages and records for this station are not official NWS values.
T = Trace of Precipitation, MM = Missing Value Source: NWS Daily Summary

Daily Weather History Graph

Daily Weather History Graph

Search for Another Location

Airport or City:

Trip Planner

Search our weather history database for the weather conditions in past years. The results will help you decide how hot, cold, wet, or windy it might be!

Date:

Astronomy

Dec. 03, 2000 Rise Set
Actual Time 7:32 AM CST 5:01 PM CST
Civil Twilight 7:02 AM CST 5:31 PM CST
Nautical Twilight 6:28 AM CST 6:05 PM CST
Astronomical Twilight 5:55 AM CST 6:38 PM CST
Moon 1:03 PM CST (12/3) No Moon Set
Length of Visible Light 10h 28m
Length of Day
9h 28m
Waxing Crescent, 46% of the Moon is Illuminated
Dec 3
Waxing Crescent
Dec 3
First Quarter
Dec 11
Full
Dec 17
Last Quarter
Dec 25
New

Hourly Weather History & Observations

Time (CST) Temp. Windchill Dew Point Humidity Pressure Visibility Wind Dir Wind Speed Gust Speed Precip Events Conditions
12:35 AM 24.8 °F 16.9 °F 19.4 °F 80% 30.56 in 10.0 mi South 6.9 mph - N/A   Overcast
12:49 AM 24.8 °F 16.1 °F 21.2 °F 86% 30.55 in 10.0 mi SSE 8.1 mph - N/A   Overcast
1:11 AM 24.8 °F 16.9 °F 21.2 °F 86% 30.53 in 10.0 mi SE 6.9 mph - N/A   Scattered Clouds
2:09 AM 21.2 °F 12.6 °F 19.4 °F 93% 30.53 in 10.0 mi SSE 6.9 mph - N/A   Clear
2:30 AM 21.2 °F 10.9 °F 19.4 °F 93% 30.52 in 10.0 mi SSE 9.2 mph - N/A   Clear
2:52 AM 21.2 °F 10.9 °F 19.4 °F 93% 30.52 in 10.0 mi SSE 9.2 mph - N/A   Clear
3:51 AM 21.2 °F 10.1 °F 19.4 °F 93% 30.50 in 10.0 mi South 10.4 mph - N/A   Clear
4:12 AM 21.2 °F 10.1 °F 19.4 °F 93% 30.49 in 10.0 mi SSE 10.4 mph - N/A   Clear
4:29 AM 21.2 °F 10.1 °F 17.6 °F 86% 30.49 in 10.0 mi SSE 10.4 mph - N/A   Clear
4:52 AM 21.2 °F 10.1 °F 17.6 °F 86% 30.49 in 10.0 mi SSE 10.4 mph - N/A   Clear
5:09 AM 21.2 °F 10.9 °F 17.6 °F 86% 30.48 in 10.0 mi South 9.2 mph - N/A   Clear
5:29 AM 21.2 °F 9.5 °F 17.6 °F 86% 30.48 in 10.0 mi SSE 11.5 mph - N/A   Clear
5:49 AM 21.2 °F 10.1 °F 17.6 °F 86% 30.47 in 10.0 mi SSE 10.4 mph - N/A   Clear
6:29 AM 21.2 °F 9.5 °F 17.6 °F 86% 30.46 in 10.0 mi SSE 11.5 mph - N/A   Clear
7:49 AM 19.4 °F 9.5 °F 15.8 °F 86% 30.46 in 10.0 mi SSE 8.1 mph - N/A   Clear
8:11 AM 19.4 °F 7.2 °F 17.6 °F 93% 30.45 in 10.0 mi SSE 11.5 mph - N/A   Clear
8:29 AM 21.2 °F 9.5 °F 17.6 °F 86% 30.45 in 10.0 mi SSE 11.5 mph - N/A   Clear
9:32 AM 26.6 °F 13.8 °F 21.2 °F 80% 30.44 in 10.0 mi South 17.3 mph 21.9 mph N/A   Clear
9:49 AM 28.4 °F 16.2 °F 21.2 °F 74% 30.44 in 10.0 mi South 17.3 mph 27.6 mph N/A   Clear
10:09 AM 28.4 °F 14.7 °F 21.2 °F 74% 30.43 in 10.0 mi South 21.9 mph 27.6 mph N/A   Clear
10:30 AM 30.2 °F 17.1 °F 21.2 °F 69% 30.42 in 10.0 mi South 21.9 mph 28.8 mph N/A   Clear
10:49 AM 32.0 °F 19.8 °F 21.2 °F 64% 30.42 in 10.0 mi South 20.7 mph 31.1 mph N/A   Clear
11:11 AM 33.8 °F 20.8 °F 19.4 °F 56% 30.41 in 10.0 mi South 26.5 mph 32.2 mph N/A   Clear
11:32 AM 33.8 °F 21.9 °F 19.4 °F 56% 30.39 in 10.0 mi South 21.9 mph 31.1 mph N/A   Clear
11:49 AM 35.6 °F 23.7 °F 21.2 °F 56% 30.38 in 10.0 mi South 24.2 mph 31.1 mph N/A   Clear
12:11 PM 35.6 °F 25.5 °F 19.4 °F 52% 30.35 in 10.0 mi South 17.3 mph 31.1 mph N/A   Clear
12:30 PM 37.4 °F 26.1 °F 19.4 °F 48% 30.33 in 10.0 mi South 24.2 mph 31.1 mph N/A   Clear
12:50 PM 37.4 °F 26.9 °F 19.4 °F 48% 30.31 in 10.0 mi South 20.7 mph 34.5 mph N/A   Clear
1:12 PM 39.2 °F 28.5 °F 19.4 °F 45% 30.29 in 10.0 mi South 24.2 mph 32.2 mph N/A   Clear
1:29 PM 39.2 °F 29.6 °F 19.4 °F 45% 30.29 in 10.0 mi South 19.6 mph 28.8 mph N/A   Clear
1:51 PM 39.2 °F 28.5 °F 19.4 °F 45% 30.28 in 10.0 mi South 24.2 mph 29.9 mph N/A   Clear
2:31 PM 41.0 °F 30.7 °F 17.6 °F 39% 30.26 in 10.0 mi South 25.3 mph 29.9 mph N/A   Clear
2:49 PM 41.0 °F 32.5 °F 17.6 °F 39% 30.26 in 10.0 mi South 17.3 mph 31.1 mph N/A   Clear
3:29 PM 39.2 °F 29.8 °F 17.6 °F 42% 30.24 in 10.0 mi South 18.4 mph 27.6 mph N/A   Clear
4:11 PM 39.2 °F 30.5 °F 17.6 °F 42% 30.24 in 10.0 mi South 16.1 mph - N/A   Clear
4:29 PM 39.2 °F 29.8 °F 17.6 °F 42% 30.23 in 10.0 mi South 18.4 mph 24.2 mph N/A   Clear
4:50 PM 37.4 °F 27.5 °F 17.6 °F 45% 30.22 in 10.0 mi South 18.4 mph - N/A   Clear
5:11 PM 37.4 °F 28.5 °F 17.6 °F 45% 30.23 in 10.0 mi South 15.0 mph 20.7 mph N/A   Clear
5:29 PM 37.4 °F 29.3 °F 17.6 °F 45% 30.24 in 10.0 mi South 12.7 mph - N/A   Clear
5:52 PM 35.6 °F 26.6 °F 17.6 °F 48% 30.23 in 10.0 mi South 13.8 mph - N/A   Clear
6:09 PM 35.6 °F 28.0 °F 17.6 °F 48% 30.25 in 10.0 mi SSW 10.4 mph - N/A   Clear
6:50 PM 33.8 °F 25.3 °F 17.6 °F 52% 30.25 in 10.0 mi South 11.5 mph - N/A   Clear
7:09 PM 33.8 °F 27.0 °F 17.6 °F 52% 30.26 in 10.0 mi South 8.1 mph - N/A   Clear
7:30 PM 30.2 °F 23.4 °F 17.6 °F 60% 30.26 in 10.0 mi South 6.9 mph - N/A   Clear
7:49 PM 30.2 °F 22.6 °F 17.6 °F 60% 30.26 in 10.0 mi South 8.1 mph - N/A   Clear
8:31 PM 32.0 °F 22.5 °F 19.4 °F 60% 30.24 in 10.0 mi South 12.7 mph - N/A   Clear
8:49 PM 33.8 °F 25.3 °F 19.4 °F 56% 30.24 in 10.0 mi South 11.5 mph - N/A   Clear
9:30 PM 33.8 °F 24.8 °F 19.4 °F 56% 30.24 in 10.0 mi South 12.7 mph - N/A   Clear
9:49 PM 33.8 °F 23.5 °F 19.4 °F 56% 30.23 in 10.0 mi South 16.1 mph 21.9 mph N/A   Clear
10:09 PM 33.8 °F 23.2 °F 19.4 °F 56% 30.23 in 10.0 mi South 17.3 mph - N/A   Clear
11:11 PM 32.0 °F 22.1 °F 19.4 °F 60% 30.23 in 10.0 mi SSW 13.8 mph 20.7 mph N/A   Clear
11:50 PM 30.2 °F 19.8 °F 19.4 °F 64% 30.23 in 10.0 mi SSW 13.8 mph - N/A   Clear